Meteo Giornale » Osservazioni meteo Stati Uniti (USA) » Houghton Lake Roscommon
ore: 02:08 - Osservazioni Meteo Houghton Lake Roscommon
Lat. 44° 21' N Lon. 84° 40' W Alt. 350 metri s.l.m.
19 °C
Foschia
Temp. 24 Ore
19 °C
28 °C
Nord
0 Km/h
Dew point 19 °C
Umidità 100 %
Visibilità 5 Km
Il sole sorge alle ore 07:01
Il sole tramonta alle ore 20:15
| Data e Ora | Cielo e Fenomeni | T °C | DP °C | Um. % | Pres. hPa | Vis. km | Vento km/h | |
|---|---|---|---|---|---|---|---|---|
| Oggi h: 02:08 | Foschia | 19 | 19 | 100 | 1014 | 5 | N 0 | |
| Oggi h: 02:04 | Foschia | 19 | 19 | 100 | 1014 | 5 | N 0 | |
| Oggi h: 01:53 | Foschia | 19 | 19 | 100 | 1013 | 10 | N 0 | |
| Oggi h: 00:53 | Sereno | 21 | 19 | 88 | 1014 | 10 | N 0 | |
| Ieri h: 23:53 | Sereno | 21 | 19 | 88 | 1013 | 10 | N 0 | |
| Ieri h: 22:53 | Sereno | 23 | 19 | 78 | 1014 | 10 | N 5.5 | |
| Ieri h: 21:53 | Sereno | 24 | 19 | 73 | 1013 | 10 | O/SO 9.3 | |
| Ieri h: 20:53 | Sereno | 24 | 19 | 73 | 1013 | 10 | O/SO 13 | |
| Ieri h: 19:53 | Sereno | 26 | 19 | 65 | 1012 | 10 | SO 13 | |
| Ieri h: 18:53 | Sereno | 27 | 21 | 69 | 1012 | 10 | SO 9.3 | |
| Ieri h: 17:53 | Sereno | 28 | 20 | 61 | 1012 | 10 | S/SO 14.8 | |
| Ieri h: 16:53 | Sereno | 27 | 22 | 74 | 1012 | 10 | S/SE 11.1 | |
| Ieri h: 15:53 | Sereno | 26 | 22 | 78 | 1013 | 10 | S 11.1 | |
| Ieri h: 15:17 | Nuvoloso | 24 | 21 | 83 | 1013 | 10 | S 16.7 | |
| Ieri h: 15:06 | Molto Nuvoloso | 24 | 21 | 83 | 1014 | 10 | S 18.5 | |
| Ieri h: 14:53 | Nuvoloso | 25 | 21 | 78 | 1014 | 10 | S/SO 18.5 | |
| Ieri h: 13:53 | Sereno | 23 | 21 | 88 | 1014 | 10 | S 16.7 | |
| Ieri h: 12:53 | Poco Nuvoloso | 21 | 19 | 88 | 1015 | 10 | S/SE 13 | |
| Ieri h: 12:32 | Temporale nelle vicinanze Pioggia | 21 | 19 | 88 | 1016 | 10 | S 16.7 | |
| Ieri h: 12:23 | Pioggia | 21 | 19 | 88 | 1016 | 13 | S 14.8 | |
| Ieri h: 11:53 | Temporale nelle vicinanze Pioggia | 21 | 20 | 94 | 1017 | 10 | E/SE 11.1 | |
| Ieri h: 11:38 | Temporale nelle vicinanze Pioggia | 20 | 20 | 100 | 1017 | 5 | SE 7.4 | |
| Ieri h: 11:30 | Pioggia Foschia | 20 | 20 | 100 | 1017 | 5 | E/SE 13 | |
| Ieri h: 11:17 | Foschia | 20 | 20 | 100 | 1017 | 8 | N 0 | |
| Ieri h: 10:53 | Temporale nelle vicinanze Foschia | 20 | 20 | 100 | 1016 | 6 | E 7.4 | |
| Ieri h: 10:50 | Pioggia Foschia | 20 | 20 | 100 | 1016 | 5 | E/SE 7.4 | |
| Ieri h: 10:42 | Pioggia Foschia | 20 | 20 | 100 | 1016 | 5 | E/SE 9.3 | |
| Ieri h: 10:30 | Foschia | 20 | 20 | 100 | 1016 | 5 | N 5.5 | |
| Ieri h: 10:18 | Pioggia Foschia | 20 | 20 | 100 | 1016 | 5 | SE 9.3 | |
| Ieri h: 10:10 | Pioggia Foschia | 20 | 20 | 100 | 1017 | 5 | N 5.5 | |
| Ieri h: 10:06 | Temporale nelle vicinanze Pioggia | 20 | 20 | 100 | 1017 | 2 | N 0 | |
| Ieri h: 10:01 | Temporale nelle vicinanze Pioggia | 20 | 20 | 100 | 1017 | 5 | N 0 | |
| Ieri h: 09:53 | Pioggia Foschia | 20 | 20 | 100 | 1017 | 3 | S/SO 7.4 | |
| Ieri h: 09:34 | Pioggia Foschia | 20 | 20 | 100 | 1017 | 2 | N 5.5 | |
| Ieri h: 09:24 | Pioggia Foschia | 20 | 20 | 100 | 1017 | 5 | SO 7.4 | |
| Ieri h: 09:14 | Pioggia Foschia | 20 | 20 | 100 | 1017 | 3 | S/SO 11.1 | |
| Ieri h: 08:53 | Pioggia Foschia | 20 | 20 | 100 | 1016 | 2 | N 5.5 | |
| Ieri h: 08:08 | Foschia | 19 | 19 | 100 | 1015 | 2 | N 0 | |
| Ieri h: 07:53 | Foschia | 19 | 19 | 100 | 1015 | 2 | S/SE 7.4 | |
| Ieri h: 07:49 | Foschia | 19 | 19 | 100 | 1015 | 2 | SE 9.3 | |
| Ieri h: 07:39 | Foschia | 19 | 19 | 100 | 1015 | 5 | SE 7.4 | |
| Ieri h: 07:32 | Foschia | 19 | 19 | 100 | 1015 | 2 | SE 7.4 | |
| Ieri h: 07:06 | Foschia | 19 | 19 | 100 | 1015 | 5 | N 0 | |
| Ieri h: 06:53 | Foschia | 19 | 19 | 100 | 1015 | 2 | N 5.5 | |
| Ieri h: 06:48 | Foschia | 19 | 19 | 100 | 1015 | 5 | E/NE 7.4 | |
| Ieri h: 06:39 | Foschia | 19 | 19 | 100 | 1015 | 5 | N 5.5 | |
| Ieri h: 06:37 | Foschia | 19 | 19 | 100 | 1015 | 2 | N 0 | |
| Ieri h: 06:34 | Foschia | 19 | 19 | 100 | 1015 | 3 | N 0 | |
| Ieri h: 05:53 | Foschia | 19 | 19 | 100 | 1015 | 8 | S/SO 7.4 | |
| Ieri h: 05:43 | Foschia | 20 | 19 | 93 | 1015 | 10 | S/SO 9.3 | |
| Ieri h: 05:25 | Molto Nuvoloso | 20 | 19 | 93 | 1016 | 11 | SO 9.3 | |
| Ieri h: 05:04 | Temporale nelle vicinanze Pioggia | 20 | 19 | 93 | 1016 | 11 | N 0 | |
| Ieri h: 04:53 | Pioggia | 20 | 19 | 93 | 1016 | 11 | N 5.5 | |
| Ieri h: 04:51 | Pioggia | 20 | 19 | 93 | 1016 | 11 | N 5.5 | |
| Ieri h: 04:39 | Pioggia | 20 | 19 | 93 | 1016 | 11 | O/NO 7.4 | |
| Ieri h: 04:23 | Temporale Foschia | 20 | 19 | 93 | 1016 | 8 | SO 11.1 | |
| Ieri h: 04:18 | Temporale Foschia | 20 | 19 | 93 | 1016 | 6 | S/SO 11.1 | |
| Ieri h: 03:55 | Temporale nelle vicinanze | 20 | 19 | 93 | 1015 | 11 | S 7.4 | |
| Ieri h: 03:53 | Coperto | 20 | 19 | 93 | 1015 | 11 | S/SE 9.3 | |
| Ieri h: 02:53 | Foschia | 19 | 19 | 100 | 1015 | 8 | N 5.5 | |



